Wetterdaten: Dienstag, 26.10.2010
Datum Zeit Temp. A. Feuchte A. Luftdruck Regen Wind Richtung Richtung Sonnenschein UV Solar Windben
26.10.2010 00:00 4,1 C 86 % 1025,7 hPa 0,0 mm 0,8 km/h (0 Bft) W-SW 243 0 min 0 UV-I 0 W/m 4,8 km/h (1 Bft)
26.10.2010 00:10 4,0 C 86 % 1025,7 hPa 0,0 mm 0,9 km/h (0 Bft) W-SW 245 0 min 0 UV-I 0 W/m 6,4 km/h (2 Bft)
26.10.2010 00:20 4,0 C 86 % 1025,8 hPa 0,0 mm 1,1 km/h (1 Bft) W-SW 243 0 min 0 UV-I 0 W/m 6,4 km/h (2 Bft)
26.10.2010 00:30 4,0 C 86 % 1025,9 hPa 0,0 mm 0,7 km/h (0 Bft) W-SW 239 0 min 0 UV-I 0 W/m 8,0 km/h (2 Bft)
26.10.2010 00:40 3,9 C 86 % 1025,8 hPa 0,0 mm 0,6 km/h (0 Bft) W-SW 239 0 min 0 UV-I 0 W/m 4,8 km/h (1 Bft)
26.10.2010 00:50 3,9 C 86 % 1025,8 hPa 0,0 mm 0,9 km/h (0 Bft) W 260 0 min 0 UV-I 0 W/m 8,0 km/h (2 Bft)
26.10.2010 01:00 3,9 C 86 % 1025,8 hPa 0,0 mm 1,6 km/h (1 Bft) W-SW 247 0 min 0 UV-I 0 W/m 6,4 km/h (2 Bft)
26.10.2010 01:10 3,8 C 86 % 1025,8 hPa 0,0 mm 1,6 km/h (1 Bft) W-SW 247 0 min 0 UV-I 0 W/m 6,4 km/h (2 Bft)
26.10.2010 01:20 3,8 C 87 % 1025,9 hPa 0,0 mm 1,6 km/h (1 Bft) W-SW 247 0 min 0 UV-I 0 W/m 9,7 km/h (2 Bft)
26.10.2010 01:30 3,8 C 87 % 1026,0 hPa 0,0 mm 1,6 km/h (1 Bft) W 270 0 min 0 UV-I 0 W/m 4,8 km/h (1 Bft)
26.10.2010 01:40 3,8 C 87 % 1026,0 hPa 0,0 mm 0,0 km/h (0 Bft) W 270 0 min 0 UV-I 0 W/m 6,4 km/h (2 Bft)
26.10.2010 01:50 3,8 C 87 % 1026,0 hPa 0,0 mm 1,6 km/h (1 Bft) W 270 0 min 0 UV-I 0 W/m 9,7 km/h (2 Bft)
26.10.2010 02:00 3,9 C 87 % 1025,8 hPa 0,0 mm 3,2 km/h (1 Bft) W 270 0 min 0 UV-I 0 W/m 9,7 km/h (2 Bft)
26.10.2010 02:10 4,0 C 88 % 1025,8 hPa 0,0 mm 1,6 km/h (1 Bft) W 270 0 min 0 UV-I 0 W/m 8,0 km/h (2 Bft)
26.10.2010 02:20 4,1 C 88 % 1025,8 hPa 0,0 mm 3,2 km/h (1 Bft) W-SW 247 0 min 0 UV-I 0 W/m 9,7 km/h (2 Bft)
26.10.2010 02:30 4,1 C 88 % 1025,7 hPa 0,0 mm 1,6 km/h (1 Bft) W-SW 247 0 min 0 UV-I 0 W/m 8,0 km/h (2 Bft)
26.10.2010 02:40 4,1 C 88 % 1025,7 hPa 0,0 mm 1,6 km/h (1 Bft) W-SW 247 0 min 0 UV-I 0 W/m 8,0 km/h (2 Bft)
26.10.2010 02:50 4,1 C 88 % 1025,8 hPa 0,0 mm 1,6 km/h (1 Bft) W-SW 247 0 min 0 UV-I 0 W/m 8,0 km/h (2 Bft)
26.10.2010 03:00 4,0 C 88 % 1026,0 hPa 0,0 mm 1,6 km/h (1 Bft) W 270 0 min 0 UV-I 0 W/m 8,0 km/h (2 Bft)
26.10.2010 03:10 3,9 C 87 % 1025,9 hPa 0,0 mm 1,6 km/h (1 Bft) W 270 0 min 0 UV-I 0 W/m 6,4 km/h (2 Bft)
26.10.2010 03:20 3,9 C 87 % 1026,0 hPa 0,0 mm 1,6 km/h (1 Bft) W 270 0 min 0 UV-I 0 W/m 6,4 km/h (2 Bft)
26.10.2010 03:30 3,8 C 87 % 1026,0 hPa 0,0 mm 1,6 km/h (1 Bft) W 270 0 min 0 UV-I 0 W/m 6,4 km/h (2 Bft)
26.10.2010 03:40 3,7 C 88 % 1026,1 hPa 0,0 mm 1,6 km/h (1 Bft) W 270 0 min 0 UV-I 0 W/m 6,4 km/h (2 Bft)
26.10.2010 03:50 3,7 C 88 % 1026,0 hPa 0,0 mm 1,6 km/h (1 Bft) W 270 0 min 0 UV-I 0 W/m 6,4 km/h (2 Bft)
26.10.2010 04:00 3,7 C 88 % 1025,9 hPa 0,0 mm 1,6 km/h (1 Bft) W 270 0 min 0 UV-I 0 W/m 8,0 km/h (2 Bft)
26.10.2010 04:10 3,7 C 88 % 1025,9 hPa 0,0 mm 3,2 km/h (1 Bft) W-SW 247 0 min 0 UV-I 0 W/m 8,0 km/h (2 Bft)
26.10.2010 04:20 3,7 C 88 % 1025,9 hPa 0,0 mm 3,2 km/h (1 Bft) W-SW 247 0 min 0 UV-I 0 W/m 9,7 km/h (2 Bft)
26.10.2010 04:30 3,7 C 88 % 1025,9 hPa 0,0 mm 1,6 km/h (1 Bft) W-SW 247 0 min 0 UV-I 0 W/m 6,4 km/h (2 Bft)
26.10.2010 04:40 3,7 C 88 % 1026,2 hPa 0,0 mm 1,6 km/h (1 Bft) W-SW 247 0 min 0 UV-I 0 W/m 8,0 km/h (2 Bft)
26.10.2010 04:50 3,6 C 88 % 1026,3 hPa 0,0 mm 1,6 km/h (1 Bft) W-SW 247 0 min 0 UV-I 0 W/m 9,7 km/h (2 Bft)
26.10.2010 05:00 3,6 C 88 % 1026,3 hPa 0,0 mm 1,6 km/h (1 Bft) W-SW 247 0 min 0 UV-I 0 W/m 6,4 km/h (2 Bft)
26.10.2010 05:10 3,5 C 88 % 1026,4 hPa 0,0 mm 1,6 km/h (1 Bft) W-SW 247 0 min 0 UV-I 0 W/m 6,4 km/h (2 Bft)
26.10.2010 05:20 3,4 C 88 % 1026,4 hPa 0,0 mm 1,6 km/h (1 Bft) W-SW 247 0 min 0 UV-I 0 W/m 6,4 km/h (2 Bft)
26.10.2010 05:30 3,4 C 88 % 1026,3 hPa 0,0 mm 1,6 km/h (1 Bft) W-SW 247 0 min 0 UV-I 0 W/m 4,8 km/h (1 Bft)
26.10.2010 05:40 3,4 C 88 % 1026,4 hPa 0,0 mm 1,6 km/h (1 Bft) W-SW 247 0 min 0 UV-I 0 W/m 9,7 km/h (2 Bft)
26.10.2010 05:50 3,3 C 89 % 1026,4 hPa 0,0 mm 1,6 km/h (1 Bft) W-SW 247 0 min 0 UV-I 0 W/m 9,7 km/h (2 Bft)
26.10.2010 06:00 3,3 C 89 % 1026,3 hPa 0,0 mm 1,6 km/h (1 Bft) W 270 0 min 0 UV-I 0 W/m 6,4 km/h (2 Bft)
26.10.2010 06:10 3,3 C 89 % 1026,4 hPa 0,0 mm 1,6 km/h (1 Bft) W 270 0 min 0 UV-I 0 W/m 9,7 km/h (2 Bft)
26.10.2010 06:20 3,3 C 89 % 1026,5 hPa 0,0 mm 3,2 km/h (1 Bft) W-SW 247 0 min 0 UV-I 0 W/m 9,7 km/h (2 Bft)
26.10.2010 06:30 3,3 C 89 % 1026,5 hPa 0,0 mm 1,6 km/h (1 Bft) W-SW 247 0 min 0 UV-I 0 W/m 4,8 km/h (1 Bft)
26.10.2010 06:40 3,2 C 89 % 1026,5 hPa 0,0 mm 0,0 km/h (0 Bft) W-SW 247 0 min 0 UV-I 0 W/m 4,8 km/h (1 Bft)
26.10.2010 06:50 3,2 C 89 % 1026,7 hPa 0,0 mm 0,0 km/h (0 Bft) W-SW 247 0 min 0 UV-I 0 W/m 3,2 km/h (1 Bft)
26.10.2010 07:00 3,1 C 89 % 1026,9 hPa 0,0 mm 0,0 km/h (0 Bft) W-SW 247 0 min 0 UV-I 0 W/m 6,4 km/h (2 Bft)
26.10.2010 07:10 3,0 C 89 % 1027,1 hPa 0,0 mm 0,0 km/h (0 Bft) W-SW 247 0 min 0 UV-I 0 W/m 1,6 km/h (1 Bft)
26.10.2010 07:20 2,9 C 89 % 1027,2 hPa 0,0 mm 0,0 km/h (0 Bft) W-SW 247 0 min 0 UV-I 0 W/m 4,8 km/h (1 Bft)
26.10.2010 07:30 2,8 C 89 % 1027,2 hPa 0,0 mm 0,0 km/h (0 Bft) N 0 0 min 0 UV-I 0 W/m 0,0 km/h (0 Bft)
26.10.2010 07:40 2,7 C 88 % 1027,3 hPa 0,0 mm 0,0 km/h (0 Bft) N 0 0 min 0 UV-I 0 W/m 0,0 km/h (0 Bft)
26.10.2010 07:50 2,6 C 88 % 1027,6 hPa 0,0 mm 0,0 km/h (0 Bft) N 0 0 min 0 UV-I 0 W/m 0,0 km/h (0 Bft)
26.10.2010 08:00 2,4 C 88 % 1027,7 hPa 0,0 mm 0,0 km/h (0 Bft) W-SW 256 0 min 0 UV-I 0 W/m 0,0 km/h (0 Bft)
26.10.2010 08:10 2,3 C 88 % 1027,7 hPa 0,0 mm 0,0 km/h (0 Bft) N 0 0 min 0 UV-I 0 W/m 0,0 km/h (0 Bft)
26.10.2010 08:20 2,2 C 88 % 1027,7 hPa 0,0 mm 0,0 km/h (0 Bft) N 0 0 min 0 UV-I 5 W/m 0,0 km/h (0 Bft)
26.10.2010 08:30 2,2 C 89 % 1027,7 hPa 0,0 mm 0,0 km/h (0 Bft) N 0 0 min 0 UV-I 9 W/m 0,0 km/h (0 Bft)
26.10.2010 08:40 2,1 C 88 % 1027,7 hPa 0,0 mm 0,0 km/h (0 Bft) N 0 0 min 0 UV-I 12 W/m 0,0 km/h (0 Bft)
26.10.2010 08:50 1,9 C 88 % 1027,9 hPa 0,0 mm 0,0 km/h (0 Bft) N 0 0 min 0 UV-I 26 W/m 0,0 km/h (0 Bft)
26.10.2010 09:00 1,8 C 88 % 1027,9 hPa 0,0 mm 0,0 km/h (0 Bft) N 0 0 min 0 UV-I 32 W/m 0,0 km/h (0 Bft)
26.10.2010 09:10 1,7 C 88 % 1028,0 hPa 0,0 mm 0,0 km/h (0 Bft) N 0 0 min 0 UV-I 35 W/m 0,0 km/h (0 Bft)
26.10.2010 09:20 1,7 C 88 % 1028,1 hPa 0,0 mm 0,0 km/h (0 Bft) N 0 0 min 0 UV-I 44 W/m 0,0 km/h (0 Bft)
26.10.2010 09:30 1,6 C 89 % 1028,2 hPa 0,0 mm 0,0 km/h (0 Bft) N 0 10 min 0 UV-I 137 W/m 0,0 km/h (0 Bft)
26.10.2010 09:40 1,8 C 89 % 1028,3 hPa 0,0 mm 0,0 km/h (0 Bft) N 0 10 min 0 UV-I 144 W/m 0,0 km/h (0 Bft)
26.10.2010 09:50 2,3 C 91 % 1028,2 hPa 0,0 mm 0,0 km/h (0 Bft) N 0 10 min 1 UV-I 176 W/m 0,0 km/h (0 Bft)
26.10.2010 10:00 3,3 C 91 % 1028,2 hPa 0,0 mm 0,0 km/h (0 Bft) W 270 10 min 1 UV-I 199 W/m 1,6 km/h (1 Bft)
26.10.2010 10:10 3,9 C 90 % 1028,2 hPa 0,0 mm 1,6 km/h (1 Bft) W 270 10 min 1 UV-I 216 W/m 6,4 km/h (2 Bft)
26.10.2010 10:20 4,3 C 89 % 1028,2 hPa 0,0 mm 1,6 km/h (1 Bft) W 270 10 min 1 UV-I 239 W/m 8,0 km/h (2 Bft)
26.10.2010 10:30 4,7 C 88 % 1028,3 hPa 0,0 mm 1,6 km/h (1 Bft) W 270 10 min 1 UV-I 255 W/m 8,0 km/h (2 Bft)
26.10.2010 10:40 5,1 C 87 % 1028,3 hPa 0,0 mm 0,0 km/h (0 Bft) W 270 10 min 1 UV-I 279 W/m 4,8 km/h (1 Bft)
26.10.2010 10:50 5,4 C 85 % 1028,4 hPa 0,0 mm 1,6 km/h (1 Bft) W 270 10 min 1 UV-I 304 W/m 8,0 km/h (2 Bft)
26.10.2010 11:00 5,7 C 84 % 1028,3 hPa 0,0 mm 0,0 km/h (0 Bft) W 270 10 min 1 UV-I 327 W/m 6,4 km/h (2 Bft)
26.10.2010 11:10 5,9 C 83 % 1028,4 hPa 0,0 mm 1,6 km/h (1 Bft) W 270 10 min 1 UV-I 345 W/m 6,4 km/h (2 Bft)
26.10.2010 11:20 6,1 C 83 % 1028,4 hPa 0,0 mm 0,0 km/h (0 Bft) W 270 10 min 1 UV-I 362 W/m 3,2 km/h (1 Bft)
26.10.2010 11:30 6,5 C 82 % 1028,4 hPa 0,0 mm 1,6 km/h (1 Bft) W 270 10 min 1 UV-I 404 W/m 6,4 km/h (2 Bft)
26.10.2010 11:40 6,7 C 81 % 1028,4 hPa 0,0 mm 1,6 km/h (1 Bft) W 270 10 min 2 UV-I 334 W/m 4,8 km/h (1 Bft)
26.10.2010 11:50 7,2 C 80 % 1028,4 hPa 0,0 mm 1,6 km/h (1 Bft) W 270 10 min 2 UV-I 287 W/m 8,0 km/h (2 Bft)
26.10.2010 12:00 7,4 C 81 % 1028,4 hPa 0,0 mm 0,0 km/h (0 Bft) W 270 10 min 2 UV-I 443 W/m 4,8 km/h (1 Bft)
26.10.2010 12:10 7,9 C 79 % 1028,5 hPa 0,0 mm 1,6 km/h (1 Bft) W 270 10 min 2 UV-I 431 W/m 9,7 km/h (2 Bft)
26.10.2010 12:20 8,2 C 77 % 1028,4 hPa 0,0 mm 1,6 km/h (1 Bft) W 270 10 min 2 UV-I 431 W/m 9,7 km/h (2 Bft)
26.10.2010 12:30 8,5 C 76 % 1028,4 hPa 0,0 mm 4,8 km/h (1 Bft) W 270 10 min 2 UV-I 438 W/m 9,7 km/h (2 Bft)
26.10.2010 12:40 8,6 C 77 % 1028,4 hPa 0,0 mm 1,6 km/h (1 Bft) W 270 10 min 2 UV-I 466 W/m 8,0 km/h (2 Bft)
26.10.2010 12:50 9,0 C 74 % 1028,4 hPa 0,0 mm 1,6 km/h (1 Bft) W 270 10 min 2 UV-I 480 W/m 9,7 km/h (2 Bft)
26.10.2010 13:00 9,2 C 73 % 1028,4 hPa 0,0 mm 3,2 km/h (1 Bft) W 270 10 min 2 UV-I 450 W/m 9,7 km/h (2 Bft)
26.10.2010 13:10 9,3 C 73 % 1028,3 hPa 0,0 mm 3,2 km/h (1 Bft) W 270 10 min 2 UV-I 420 W/m 9,7 km/h (2 Bft)
26.10.2010 13:20 9,4 C 73 % 1028,1 hPa 0,0 mm 1,6 km/h (1 Bft) NW 315 10 min 2 UV-I 408 W/m 9,7 km/h (2 Bft)
26.10.2010 13:30 9,3 C 74 % 1028,0 hPa 0,0 mm 1,6 km/h (1 Bft) NW 315 10 min 1 UV-I 281 W/m 9,7 km/h (2 Bft)
26.10.2010 13:40 9,2 C 74 % 1028,0 hPa 0,0 mm 1,6 km/h (1 Bft) NW 315 10 min 1 UV-I 315 W/m 6,4 km/h (2 Bft)
26.10.2010 13:50 9,5 C 73 % 1027,9 hPa 0,0 mm 3,2 km/h (1 Bft) W-NW 292 10 min 1 UV-I 246 W/m 9,7 km/h (2 Bft)
26.10.2010 14:00 9,6 C 73 % 1027,8 hPa 0,0 mm 3,2 km/h (1 Bft) W 270 10 min 1 UV-I 237 W/m 9,7 km/h (2 Bft)
26.10.2010 14:10 9,6 C 73 % 1027,9 hPa 0,0 mm 3,2 km/h (1 Bft) W-SW 247 0 min 1 UV-I 213 W/m 9,7 km/h (2 Bft)
26.10.2010 14:20 9,6 C 72 % 1027,9 hPa 0,0 mm 4,8 km/h (1 Bft) W 270 0 min 1 UV-I 200 W/m 11,3 km/h (2 Bft)
26.10.2010 14:30 9,6 C 72 % 1027,8 hPa 0,0 mm 3,2 km/h (1 Bft) W 270 0 min 1 UV-I 186 W/m 9,7 km/h (2 Bft)
26.10.2010 14:40 9,7 C 73 % 1027,7 hPa 0,0 mm 1,6 km/h (1 Bft) W 270 0 min 1 UV-I 172 W/m 9,7 km/h (2 Bft)
26.10.2010 14:50 9,7 C 73 % 1027,6 hPa 0,0 mm 1,6 km/h (1 Bft) SW 225 0 min 1 UV-I 146 W/m 6,4 km/h (2 Bft)
26.10.2010 15:00 9,7 C 72 % 1027,5 hPa 0,0 mm 3,2 km/h (1 Bft) W 270 0 min 1 UV-I 116 W/m 9,7 km/h (2 Bft)
26.10.2010 15:10 9,6 C 73 % 1027,5 hPa 0,0 mm 1,6 km/h (1 Bft) W 270 0 min 1 UV-I 125 W/m 6,4 km/h (2 Bft)
26.10.2010 15:20 9,6 C 72 % 1027,5 hPa 0,0 mm 3,2 km/h (1 Bft) W-SW 247 0 min 1 UV-I 130 W/m 14,5 km/h (3 Bft)
26.10.2010 15:30 9,6 C 72 % 1027,5 hPa 0,0 mm 3,2 km/h (1 Bft) W-SW 247 0 min 1 UV-I 121 W/m 11,3 km/h (2 Bft)
26.10.2010 15:40 9,6 C 72 % 1027,5 hPa 0,0 mm 3,2 km/h (1 Bft) W 270 0 min 1 UV-I 125 W/m 14,5 km/h (3 Bft)
26.10.2010 15:50 9,6 C 73 % 1027,6 hPa 0,0 mm 1,6 km/h (1 Bft) W 270 0 min 1 UV-I 123 W/m 6,4 km/h (2 Bft)
26.10.2010 16:00 9,7 C 74 % 1027,6 hPa 0,0 mm 1,0 km/h (0 Bft) W-SW 252 0 min 0 UV-I 85 W/m 6,4 km/h (2 Bft)
26.10.2010 16:10 9,6 C 73 % 1027,5 hPa 0,0 mm 1,6 km/h (1 Bft) W-SW 247 0 min 0 UV-I 84 W/m 8,0 km/h (2 Bft)
26.10.2010 16:20 9,5 C 73 % 1027,6 hPa 0,0 mm 1,6 km/h (1 Bft) W-SW 247 0 min 0 UV-I 65 W/m 9,7 km/h (2 Bft)
26.10.2010 16:30 9,4 C 73 % 1027,6 hPa 0,0 mm 3,2 km/h (1 Bft) W-SW 247 0 min 0 UV-I 67 W/m 8,0 km/h (2 Bft)
26.10.2010 16:40 9,3 C 74 % 1027,6 hPa 0,0 mm 1,6 km/h (1 Bft) W 270 0 min 0 UV-I 63 W/m 8,0 km/h (2 Bft)
26.10.2010 16:50 9,2 C 74 % 1027,6 hPa 0,0 mm 1,6 km/h (1 Bft) W 270 0 min 0 UV-I 54 W/m 8,0 km/h (2 Bft)
26.10.2010 17:00 9,2 C 74 % 1027,6 hPa 0,0 mm 0,0 km/h (0 Bft) W 270 0 min 0 UV-I 49 W/m 6,4 km/h (2 Bft)
26.10.2010 17:10 9,1 C 75 % 1027,6 hPa 0,0 mm 0,0 km/h (0 Bft) W 270 0 min 0 UV-I 35 W/m 4,8 km/h (1 Bft)
26.10.2010 17:20 9,0 C 76 % 1027,6 hPa 0,0 mm 0,0 km/h (0 Bft) W 270 0 min 0 UV-I 23 W/m 1,6 km/h (1 Bft)
26.10.2010 17:30 8,9 C 77 % 1027,6 hPa 0,0 mm 0,0 km/h (0 Bft) W 270 0 min 0 UV-I 18 W/m 1,6 km/h (1 Bft)
26.10.2010 17:40 8,7 C 78 % 1027,6 hPa 0,0 mm 0,0 km/h (0 Bft) W 270 0 min 0 UV-I 12 W/m 1,6 km/h (1 Bft)
26.10.2010 17:50 8,6 C 79 % 1027,7 hPa 0,0 mm 0,0 km/h (0 Bft) N 0 0 min 0 UV-I 9 W/m 0,0 km/h (0 Bft)
26.10.2010 18:00 8,4 C 79 % 1027,7 hPa 0,0 mm 0,0 km/h (0 Bft) N 0 0 min 0 UV-I 5 W/m 0,0 km/h (0 Bft)
26.10.2010 18:10 8,3 C 80 % 1027,7 hPa 0,0 mm 0,0 km/h (0 Bft) N 0 0 min 0 UV-I 0 W/m 0,0 km/h (0 Bft)
26.10.2010 18:20 8,2 C 80 % 1027,7 hPa 0,0 mm 0,0 km/h (0 Bft) N 0 0 min 0 UV-I 0 W/m 0,0 km/h (0 Bft)
26.10.2010 18:30 8,0 C 81 % 1027,6 hPa 0,0 mm 0,0 km/h (0 Bft) N 0 0 min 0 UV-I 0 W/m 0,0 km/h (0 Bft)
26.10.2010 18:40 7,8 C 82 % 1027,5 hPa 0,0 mm 0,0 km/h (0 Bft) N 0 0 min 0 UV-I 0 W/m 0,0 km/h (0 Bft)
26.10.2010 18:50 7,6 C 83 % 1027,4 hPa 0,0 mm 0,0 km/h (0 Bft) W 270 0 min 0 UV-I 0 W/m 1,6 km/h (1 Bft)
26.10.2010 19:00 7,6 C 83 % 1027,2 hPa 0,0 mm 0,0 km/h (0 Bft) W-SW 247 0 min 0 UV-I 0 W/m 1,6 km/h (1 Bft)
26.10.2010 19:10 7,5 C 83 % 1027,0 hPa 0,0 mm 0,0 km/h (0 Bft) W 270 0 min 0 UV-I 0 W/m 3,2 km/h (1 Bft)
26.10.2010 19:20 7,5 C 83 % 1027,2 hPa 0,0 mm 0,0 km/h (0 Bft) W-SW 247 0 min 0 UV-I 0 W/m 4,8 km/h (1 Bft)
26.10.2010 19:30 7,6 C 81 % 1027,1 hPa 0,0 mm 0,0 km/h (0 Bft) W-SW 247 0 min 0 UV-I 0 W/m 1,6 km/h (1 Bft)
26.10.2010 19:40 7,6 C 80 % 1027,1 hPa 0,0 mm 0,0 km/h (0 Bft) W-SW 247 0 min 0 UV-I 0 W/m 1,6 km/h (1 Bft)
26.10.2010 19:50 7,6 C 81 % 1027,0 hPa 0,0 mm 0,0 km/h (0 Bft) W-SW 247 0 min 0 UV-I 0 W/m 1,6 km/h (1 Bft)
26.10.2010 20:00 7,4 C 81 % 1027,0 hPa 0,0 mm 0,0 km/h (0 Bft) W-SW 247 0 min 0 UV-I 0 W/m 3,2 km/h (1 Bft)
26.10.2010 20:10 7,3 C 82 % 1026,8 hPa 0,0 mm 0,0 km/h (0 Bft) W-SW 247 0 min 0 UV-I 0 W/m 1,6 km/h (1 Bft)
26.10.2010 20:20 7,2 C 81 % 1026,5 hPa 0,0 mm 0,0 km/h (0 Bft) W-SW 247 0 min 0 UV-I 0 W/m 4,8 km/h (1 Bft)
26.10.2010 20:30 7,2 C 81 % 1026,4 hPa 0,0 mm 0,0 km/h (0 Bft) W-SW 247 0 min 0 UV-I 0 W/m 1,6 km/h (1 Bft)
26.10.2010 20:40 7,1 C 81 % 1026,2 hPa 0,0 mm 0,0 km/h (0 Bft) W-SW 247 0 min 0 UV-I 0 W/m 1,6 km/h (1 Bft)
26.10.2010 20:50 7,0 C 81 % 1026,3 hPa 0,0 mm 0,0 km/h (0 Bft) W-SW 247 0 min 0 UV-I 0 W/m 1,6 km/h (1 Bft)
26.10.2010 21:00 7,0 C 81 % 1026,4 hPa 0,0 mm 0,0 km/h (0 Bft) N 0 0 min 0 UV-I 0 W/m 0,0 km/h (0 Bft)
26.10.2010 21:10 6,9 C 81 % 1026,3 hPa 0,0 mm 0,0 km/h (0 Bft) N 0 0 min 0 UV-I 0 W/m 0,0 km/h (0 Bft)
26.10.2010 21:20 6,7 C 82 % 1026,3 hPa 0,0 mm 0,0 km/h (0 Bft) N 0 0 min 0 UV-I 0 W/m 0,0 km/h (0 Bft)
26.10.2010 21:30 6,7 C 81 % 1026,3 hPa 0,0 mm 0,0 km/h (0 Bft) W-SW 247 0 min 0 UV-I 0 W/m 1,6 km/h (1 Bft)
26.10.2010 21:40 6,6 C 82 % 1026,4 hPa 0,0 mm 0,0 km/h (0 Bft) W-SW 253 0 min 0 UV-I 0 W/m 0,0 km/h (0 Bft)
26.10.2010 21:50 6,6 C 82 % 1026,3 hPa 0,0 mm 0,0 km/h (0 Bft) W-SW 253 0 min 0 UV-I 0 W/m 1,6 km/h (1 Bft)
26.10.2010 22:00 6,7 C 81 % 1026,4 hPa 0,0 mm 0,0 km/h (0 Bft) W-SW 253 0 min 0 UV-I 0 W/m 0,0 km/h (0 Bft)
26.10.2010 22:10 6,7 C 80 % 1026,3 hPa 0,0 mm 0,0 km/h (0 Bft) W-SW 253 0 min 0 UV-I 0 W/m 0,0 km/h (0 Bft)
26.10.2010 22:20 6,5 C 80 % 1026,2 hPa 0,0 mm 0,0 km/h (0 Bft) W-SW 253 0 min 0 UV-I 0 W/m 0,0 km/h (0 Bft)
26.10.2010 22:30 6,3 C 81 % 1026,3 hPa 0,0 mm 0,0 km/h (0 Bft) W-SW 253 0 min 0 UV-I 0 W/m 0,0 km/h (0 Bft)
26.10.2010 22:40 5,9 C 82 % 1026,1 hPa 0,0 mm 0,0 km/h (0 Bft) W-SW 253 0 min 0 UV-I 0 W/m 0,0 km/h (0 Bft)
26.10.2010 22:50 5,7 C 83 % 1026,1 hPa 0,0 mm 0,0 km/h (0 Bft) W-SW 253 0 min 0 UV-I 0 W/m 0,0 km/h (0 Bft)
26.10.2010 23:00 5,5 C 83 % 1026,0 hPa 0,0 mm 0,0 km/h (0 Bft) W-SW 253 0 min 0 UV-I 0 W/m 1,6 km/h (1 Bft)
26.10.2010 23:10 5,1 C 83 % 1026,0 hPa 0,0 mm 0,0 km/h (0 Bft) W-SW 253 0 min 0 UV-I 0 W/m 0,0 km/h (0 Bft)
26.10.2010 23:20 5,0 C 84 % 1026,0 hPa 0,0 mm 0,0 km/h (0 Bft) W-SW 253 0 min 0 UV-I 0 W/m 0,0 km/h (0 Bft)
26.10.2010 23:30 4,9 C 84 % 1025,9 hPa 0,0 mm 0,0 km/h (0 Bft) N 0 0 min 0 UV-I 0 W/m 0,0 km/h (0 Bft)
26.10.2010 23:40 4,9 C 85 % 1025,9 hPa 0,0 mm 0,0 km/h (0 Bft) N 0 0 min 0 UV-I 0 W/m 0,0 km/h (0 Bft)
26.10.2010 23:50 4,8 C 85 % 1025,8 hPa 0,0 mm 0,0 km/h (0 Bft) N 0 0 min 0 UV-I 0 W/m 0,0 km/h (0 Bft)
_ Min-Zeit 09:20 14:20 00:00 - 01:40 - - - - - 07:30
Minimum _ 1,6 C 72 % 1025,7 hPa - 0,0 km/h (0 Bft) - - - - - 0,0 km/h (0 Bft)
_ Max-Zeit 14:40 09:50 12:10 00:00 12:30 - - 09:30 12:40 12:50 15:20
Maximum _ 9,8 C 91 % 1028,5 hPa 0,0 mm 4,8 km/h
W (1 Bft)
- - 10 min 2 UV-I 480 W/m 14,5 km/h
W (3 Bft)
Durchschnitt _ 5,8 C 83 % 1027,0 hPa #0,0 mm 1,0 km/h (0 Bft) W - #4:40 h 1 UV-I 194 W/m 5,0 km/h (1 Bft)